Total_Precipitation_Accumulation
1.98 2.15 2.45 2.66 2.76 2.88 3.07 3.32 3.70 4.06 4.17 4.01 3.92 3.81 3.48 3.20 2.87 2.57 2.49 2.57 2.49 2.55 2.82 2.59 2.90 2.99 3.09 3.22 3.24 3.40 3.29 3.09 3.22 3.10 2.65 2.16 1.87 1.75 1.61 1.68 1.82 1.77 1.85
1.98 2.21 2.46 2.57 2.53 2.71 2.99 3.33 3.66 3.99 3.94 4.03 4.18 4.06 3.82 3.23 2.88 2.71 2.59 2.53 2.51 2.48 2.57 2.91 2.93 3.01 3.13 3.12 3.06 3.11 2.95 2.72 3.04 3.11 2.93 2.35 2.00 1.67 1.39 1.59 1.59 1.70 1.96
1.63 1.79 1.95 2.11 2.37 2.78 3.17 3.40 3.62 3.74 3.79 3.93 4.02 3.73 3.51 3.03 2.88 2.89 2.72 2.58 2.61 2.62 2.70 2.88 2.94 2.89 2.80 2.86 2.95 2.85 2.74 2.59 2.71 2.91 2.94 2.50 2.07 1.71 1.45 1.41 1.46 1.77 1.94
1.48 1.57 1.69 2.00 2.35 2.71 3.18 3.59 3.58 3.55 3.47 3.61 3.71 3.49 3.13 2.84 2.73 2.74 2.55 2.43 2.37 2.37 2.46 2.52 2.65 2.72 2.67 2.69 2.60 2.59 2.62 2.58 2.46 2.63 2.66 2.53 2.33 2.11 1.67 1.36 1.37 1.60 1.71
1.37 1.48 1.56 1.83 2.05 2.38 2.76 3.14 3.41 3.45 3.28 3.25 3.29 3.34 3.10 2.77 2.57 2.50 2.41 2.35 2.34 2.17 2.13 2.23 2.39 2.43 2.34 2.33 2.46 2.66 2.62 2.46 2.34 2.44 2.52 2.65 2.58 2.31 2.00 1.60 1.45 1.42 1.32
1.44 1.51 1.73 1.89 1.99 2.22 2.52 2.73 2.93 2.98 2.92 2.83 2.84 2.91 2.86 2.75 2.50 2.32 2.32 2.34 2.25 2.07 1.98 1.98 2.08 2.12 2.12 2.09 2.11 2.24 2.30 2.29 2.38 2.41 2.40 2.53 2.52 2.42 2.30 1.91 1.65 1.49 1.19
1.53 1.61 1.78 1.88 1.95 2.03 2.13 2.24 2.30 2.39 2.34 2.31 2.28 2.29 2.32 2.34 2.18 2.11 2.17 2.21 2.12 1.99 1.92 1.84 1.77 1.76 1.78 1.84 2.03 2.07 2.07 2.14 2.27 2.27 2.30 2.24 2.18 2.23 2.23 2.06 1.79 1.59 1.24
1.40 1.48 1.54 1.48 1.46 1.50 1.57 1.69 1.72 1.76 1.75 1.80 1.88 1.90 2.03 2.00 1.92 2.01 2.01 2.04 2.00 1.93 1.79 1.65 1.56 1.51 1.51 1.60 1.82 1.99 1.97 2.06 2.12 2.05 2.11 2.02 1.92 2.02 2.02 2.00 2.02 1.86 1.68
1.11 1.08 1.08 1.13 1.23 1.26 1.28 1.32 1.39 1.43 1.37 1.38 1.51 1.58 1.62 1.68 1.71 1.79 1.82 1.75 1.72 1.60 1.54 1.47 1.44 1.39 1.42 1.48 1.53 1.66 1.66 1.74 1.79 1.84 1.82 1.74 1.73 1.81 1.84 1.93 2.03 2.02 1.89
0.94 0.94 0.89 0.90 0.94 0.97 1.10 1.22 1.29 1.40 1.37 1.29 1.30 1.26 1.32 1.37 1.52 1.60 1.57 1.55 1.59 1.53 1.41 1.37 1.36 1.32 1.29 1.29 1.34 1.38 1.44 1.44 1.45 1.61 1.62 1.60 1.61 1.71 1.73 1.79 1.94 2.06 2.07
0.66 0.70 0.68 0.68 0.72 0.82 0.95 1.05 1.26 1.35 1.26 1.14 1.14 1.19 1.17 1.22 1.32 1.41 1.37 1.41 1.47 1.52 1.46 1.37 1.33 1.23 1.15 1.13 1.16 1.15 1.25 1.26 1.24 1.29 1.32 1.37 1.49 1.64 1.68 1.71 1.77 1.97 2.13
0.50 0.60 0.60 0.55 0.59 0.66 0.75 0.88 1.03 1.15 1.12 1.06 1.10 1.16 1.20 1.18 1.15 1.19 1.20 1.23 1.26 1.24 1.21 1.19 1.25 1.27 1.23 1.19 1.15 1.11 1.10 1.15 1.18 1.22 1.30 1.34 1.47 1.60 1.57 1.66 1.73 1.90 2.11
0.58 0.58 0.61 0.52 0.49 0.52 0.64 0.77 0.83 0.92 1.02 1.03 1.06 1.13 1.11 1.07 1.10 1.21 1.23 1.20 1.18 1.18 1.16 1.14 1.14 1.13 1.19 1.30 1.32 1.28 1.27 1.29 1.21 1.25 1.32 1.27 1.30 1.39 1.42 1.54 1.67 1.82 1.97
0.62 0.59 0.54 0.48 0.41 0.41 0.48 0.57 0.67 0.76 0.84 0.92 1.05 1.19 1.24 1.25 1.29 1.30 1.29 1.25 1.19 1.21 1.21 1.14 1.11 1.10 1.09 1.15 1.28 1.32 1.30 1.26 1.20 1.19 1.17 1.11 1.11 1.20 1.29 1.35 1.52 1.68 1.85
0.50 0.49 0.46 0.39 0.37 0.38 0.39 0.46 0.60 0.72 0.83 0.96 1.10 1.23 1.26 1.26 1.27 1.24 1.28 1.27 1.19 1.15 1.22 1.13 1.08 1.09 1.11 1.06 1.08 1.17 1.17 1.15 1.10 1.10 1.03 0.90 0.90 0.94 0.99 1.04 1.29 1.49 1.64
0.45 0.38 0.40 0.37 0.34 0.32 0.34 0.37 0.51 0.67 0.79 0.92 1.01 1.06 1.14 1.20 1.16 1.11 1.09 1.10 1.13 1.12 1.13 1.08 1.07 1.03 0.88 0.89 0.88 0.88 0.93 0.98 1.00 1.02 1.02 0.90 0.77 0.73 0.77 0.80 0.92 1.11 1.28
0.54 0.47 0.45 0.42 0.35 0.31 0.35 0.40 0.45 0.58 0.76 0.86 0.89 0.96 1.10 1.17 1.12 1.01 1.02 1.06 1.07 1.08 1.06 1.01 1.00 0.99 0.92 0.77 0.69 0.67 0.77 0.88 0.90 0.94 0.97 0.82 0.72 0.72 0.67 0.73 0.79 0.83 0.89
0.36 0.42 0.47 0.48 0.46 0.42 0.45 0.49 0.51 0.57 0.73 0.87 0.93 0.98 1.11 1.18 1.16 1.10 1.04 1.03 1.02 1.03 1.06 1.01 0.98 1.03 0.95 0.79 0.66 0.57 0.56 0.69 0.78 0.81 0.84 0.85 0.87 0.79 0.76 0.76 0.79 0.76 0.76
0.34 0.35 0.39 0.46 0.58 0.61 0.60 0.64 0.68 0.63 0.69 0.83 0.94 1.05 1.19 1.22 1.20 1.19 1.14 1.12 1.09 1.05 1.04 1.03 1.03 1.03 1.02 0.85 0.67 0.60 0.63 0.76 0.79 0.80 0.80 0.85 0.91 0.85 0.69 0.68 0.76 0.80 0.82
0.37 0.35 0.38 0.47 0.56 0.60 0.58 0.62 0.68 0.74 0.77 0.86 0.96 1.07 1.16 1.25 1.24 1.27 1.29 1.24 1.21 1.13 1.06 1.09 1.12 1.09 1.11 0.90 0.63 0.56 0.66 0.85 0.90 0.97 0.94 0.82 0.75 0.71 0.56 0.59 0.72 0.74 0.75
0.37 0.37 0.42 0.57 0.61 0.58 0.60 0.69 0.71 0.77 0.82 0.91 1.01 1.14 1.26 1.28 1.28 1.34 1.37 1.33 1.29 1.29 1.20 1.13 1.14 1.17 1.08 0.86 0.60 0.53 0.61 0.82 0.97 0.99 0.99 0.89 0.66 0.56 0.51 0.49 0.56 0.63 0.61
0.38 0.49 0.61 0.70 0.70 0.71 0.81 0.89 0.91 0.87 0.90 1.00 1.09 1.23 1.37 1.22 1.19 1.39 1.43 1.41 1.43 1.43 1.37 1.31 1.22 1.21 1.17 0.90 0.70 0.60 0.61 0.73 0.93 1.07 1.05 0.90 0.71 0.61 0.55 0.46 0.45 0.44 0.43
0.42 0.53 0.67 0.73 0.73 0.81 0.96 1.13 1.14 1.07 1.05 1.13 1.22 1.26 1.30 1.40 1.46 1.47 1.49 1.48 1.45 1.45 1.40 1.38 1.32 1.31 1.34 1.23 0.90 0.77 0.72 0.75 0.84 0.92 0.99 0.89 0.66 0.57 0.56 0.53 0.46 0.40 0.40
0.45 0.50 0.64 0.69 0.79 0.88 1.05 1.25 1.30 1.28 1.29 1.33 1.37 1.38 1.38 1.43 1.56 1.68 1.63 1.54 1.44 1.46 1.48 1.44 1.46 1.45 1.44 1.35 1.13 0.96 0.85 0.81 0.79 0.80 0.80 0.81 0.72 0.60 0.61 0.63 0.54 0.47 0.52
0.48 0.54 0.70 0.82 0.86 0.90 1.00 1.16 1.31 1.45 1.51 1.51 1.49 1.49 1.50 1.55 1.60 1.61 1.58 1.53 1.45 1.37 1.43 1.46 1.47 1.45 1.40 1.27 1.16 1.09 1.04 0.97 0.90 0.85 0.92 0.91 0.94 0.85 0.82 0.84 0.79 0.75 0.78
0.63 0.61 0.66 0.80 0.87 0.93 1.04 1.18 1.38 1.62 1.82 1.76 1.62 1.58 1.58 1.62 1.61 1.61 1.44 1.23 1.16 1.11 1.07 1.12 1.12 1.09 1.04 0.98 0.93 0.93 0.91 0.88 0.87 0.83 0.95 1.06 1.08 1.06 1.06 1.06 1.03 1.02 0.98